NOAA 16 DEB, 42364

Orbit data source: Space-Track

NOAA 16 DEB, 42364 is space debris in SSO originally from a launch on Thu, 21 Sep 2000 UTC launched from the Air Force Western Test Range (AFWTR). Debris objects in space refer to the collection of defunct objects orbiting the Earth. Examples of debris include non-operational satellites, rocket bodies, and fragments generated from explosions, collisions, or faulty payload assembly.

Loading next visibility...
Identifier
42364, 2000-055RG
Orbit
SSO
Country
Flag of USUS
Related business
Manufacturer
Unknown
Mission
Spacecraft
Bus & Motor
Unknown
Mass
Unknown
Launch date (UTC)
2000-09-21 (25 years ago)
Launch vehicle
Unknown
Launch site
Air Force Western Test Range (AFWTR)
Object type
Payload
Rocket body
Debris
Shape & HBR
Unknown shape, 0.1 m
Radar Cross Section
Small (<0.1 m²)

Expand to show TLE details & history
Last TLE update: 2 days ago

TLE from 2 days ago
0 NOAA 16 DEB
1 42364U 00055RG  25286.73957128  .00014533  00000-0  44250-2 0  9997
2 42364  98.7987  30.0664 0039615 319.8636  39.9628 14.41655208493366
Epoch: 2025-10-13T17:44Z
TLE epoch observation values (Epoch: 2025-10-13T17:44:58.958Z)
Latitude
0.00002°
Longitude
101.28271°
Altitude
734.365 km
Speed
7.499 km/s
True Right ascension
02h 00m 15s
True Declination
0° 00' 00"
Sunlit
Object was in full shadow at epoch
Visualization orbit readout
Latitude
Unknown
Longitude
Unknown
Altitude
Unknown
Speed
Unknown
Apparent Right ascension
Unknown
Apparent Declination
Unknown
Sunlit
N/A
Visualization observer readout
Local Sidereal Time
06:20:31
Azimuth
Unknown
Elevation
Unknown
Doppler factor
Unknown
Orbital elements
Apogee altitude
778.408 km
Perigee altitude
721.93 km
Semi-major axis
7,128.306 km
Eccentricity
0.00396
Inclination
98.7987°
RAAN
30.0664°
Arg. of periapsis
319.8636°
True anomaly
40.25548°
Mean anomaly
39.9628°
Eccentric anomaly
40.10903°
Mean motion
3.60632 °/min
Orbital period
99.82 mins
BSTAR
0.004425
Loading maneuver chart data...
Computing Atmospheric mass density...

Documentation

Showing up to 5 results
|